QPF
0.00 0.00 0.00 0.00 0.02 0.02 0.05 0.06 0.03 0.04 0.01 0.00 0.00 0.00 0.00 0.00 0.00 0.00 0.00 0.00 0.00 0.00 0.00 0.00 0.00 0.00 0.00 0.00 0.00 0.00 0.00 0.00 0.00 0.00 0.00 0.00 0.01 0.01 0.01 0.01 0.00 0.00 0.01
0.00 0.00 0.02 0.01 0.05 0.07 0.09 0.04 0.04 0.05 0.02 0.00 0.00 0.00 0.00 0.00 0.00 0.00 0.00 0.00 0.00 0.00 0.00 0.00 0.00 0.00 0.00 0.00 0.00 0.00 0.00 0.01 0.03 0.03 0.00 0.00 0.00 0.02 0.02 0.01 0.00 0.00 0.00
0.00 0.00 0.01 0.04 0.05 0.07 0.05 0.01 0.01 0.04 0.01 0.01 0.00 0.00 0.00 0.00 0.00 0.00 0.00 0.00 0.00 0.00 0.00 0.00 0.01 0.01 0.00 0.01 0.00 0.02 0.03 0.06 0.11 0.09 0.01 0.00 0.00 0.00 0.00 0.00 0.00 0.01 0.01
0.00 0.00 0.00 0.02 0.02 0.02 0.01 0.00 0.00 0.00 0.00 0.01 0.00 0.01 0.00 0.00 0.00 0.00 0.00 0.00 0.00 0.00 0.01 0.01 0.01 0.00 0.00 0.01 0.01 0.03 0.07 0.11 0.08 0.04 0.00 0.00 0.00 0.00 0.00 0.00 0.00 0.00 0.00
0.00 0.00 0.00 0.01 0.01 0.00 0.00 0.00 0.00 0.00 0.00 0.00 0.01 0.01 0.00 0.00 0.00 0.00 0.00 0.00 0.00 0.00 0.00 0.02 0.00 0.00 0.00 0.00 0.00 0.00 0.02 0.08 0.07 0.04 0.00 0.00 0.00 0.01 0.00 0.01 0.00 0.02 0.00
0.00 0.00 0.00 0.00 0.00 0.00 0.01 0.03 0.03 0.02 0.01 0.01 0.01 0.01 0.00 0.00 0.00 0.00 0.00 0.01 0.01 0.00 0.00 0.00 0.00 0.00 0.00 0.00 0.00 0.01 0.04 0.14 0.07 0.00 0.00 0.00 0.00 0.01 0.01 0.00 0.00 0.01 0.02
0.00 0.00 0.00 0.00 0.01 0.00 0.01 0.01 0.01 0.00 0.00 0.01 0.01 0.00 0.00 0.00 0.01 0.01 0.00 0.00 0.01 0.00 0.00 0.00 0.00 0.00 0.00 0.00 0.00 0.00 0.02 0.09 0.02 0.00 0.00 0.00 0.00 0.01 0.00 0.00 0.00 0.01 0.00
0.00 0.00 0.00 0.00 0.01 0.01 0.01 0.01 0.01 0.00 0.00 0.00 0.00 0.00 0.00 0.00 0.00 0.00 0.00 0.00 0.00 0.00 0.00 0.00 0.00 0.00 0.00 0.00 0.00 0.00 0.01 0.02 0.00 0.00 0.00 0.00 0.02 0.03 0.01 0.00 0.01 0.00 0.00
0.00 0.00 0.00 0.00 0.00 0.00 0.01 0.00 0.00 0.00 0.00 0.00 0.00 0.00 0.00 0.00 0.00 0.00 0.00 0.00 0.00 0.00 0.00 0.00 0.00 0.00 0.00 0.00 0.00 0.00 0.01 0.03 0.01 0.00 0.00 0.00 0.01 0.01 0.00 0.01 0.00 0.00 0.00
0.00 0.00 0.00 0.00 0.00 0.00 0.00 0.00 0.00 0.00 0.00 0.00 0.00 0.01 0.04 0.01 0.00 0.00 0.00 0.00 0.00 0.00 0.00 0.00 0.00 0.00 0.00 0.00 0.00 0.00 0.05 0.10 0.02 0.00 0.00 0.00 0.01 0.01 0.00 0.00 0.00 0.00 0.00
0.00 0.00 0.00 0.00 0.00 0.00 0.00 0.00 0.00 0.00 0.00 0.00 0.01 0.01 0.03 0.00 0.01 0.01 0.00 0.00 0.00 0.00 0.00 0.00 0.00 0.00 0.00 0.00 0.00 0.03 0.02 0.01 0.01 0.00 0.00 0.00 0.00 0.00 0.00 0.00 0.00 0.00 0.00
0.00 0.00 0.00 0.00 0.00 0.00 0.00 0.00 0.00 0.00 0.00 0.02 0.02 0.01 0.01 0.04 0.00 0.00 0.00 0.00 0.00 0.00 0.00 0.00 0.00 0.00 0.00 0.00 0.00 0.03 0.01 0.00 0.00 0.00 0.00 0.00 0.00 0.00 0.00 0.00 0.00 0.00 0.00
0.00 0.00 0.00 0.00 0.00 0.00 0.00 0.00 0.00 0.00 0.00 0.00 0.03 0.02 0.01 0.01 0.00 0.01 0.01 0.00 0.00 0.00 0.00 0.01 0.01 0.03 0.03 0.05 0.00 0.01 0.03 0.00 0.00 0.00 0.00 0.00 0.00 0.00 0.00 0.00 0.00 0.00 0.00
0.00 0.00 0.00 0.00 0.00 0.00 0.00 0.00 0.00 0.00 0.00 0.00 0.00 0.02 0.07 0.04 0.02 0.03 0.01 0.01 0.01 0.01 0.01 0.03 0.02 0.04 0.02 0.08 0.02 0.00 0.01 0.00 0.00 0.00 0.00 0.00 0.00 0.00 0.00 0.00 0.00 0.00 0.00
0.00 0.00 0.00 0.00 0.00 0.00 0.00 0.00 0.00 0.00 0.00 0.00 0.00 0.01 0.08 0.13 0.07 0.08 0.01 0.03 0.02 0.04 0.02 0.00 0.01 0.00 0.04 0.01 0.00 0.00 0.00 0.00 0.00 0.00 0.00 0.00 0.00 0.00 0.00 0.00 0.00 0.00 0.00
0.00 0.00 0.00 0.00 0.00 0.00 0.00 0.00 0.00 0.00 0.00 0.00 0.00 0.00 0.04 0.09 0.05 0.07 0.03 0.02 0.03 0.03 0.02 0.01 0.00 0.00 0.00 0.00 0.00 0.01 0.00 0.00 0.00 0.00 0.00 0.00 0.00 0.00 0.00 0.00 0.00 0.00 0.00
0.00 0.00 0.00 0.00 0.00 0.00 0.00 0.00 0.00 0.00 0.00 0.00 0.00 0.00 0.04 0.03 0.01 0.02 0.03 0.04 0.04 0.03 0.01 0.00 0.00 0.00 0.00 0.00 0.01 0.00 0.00 0.00 0.00 0.00 0.00 0.00 0.00 0.00 0.00 0.00 0.00 0.00 0.00
0.00 0.00 0.00 0.00 0.00 0.00 0.00 0.00 0.00 0.00 0.00 0.00 0.00 0.00 0.00 0.01 0.04 0.02 0.01 0.03 0.01 0.01 0.00 0.00 0.00 0.00 0.00 0.00 0.00 0.00 0.00 0.00 0.00 0.00 0.00 0.00 0.00 0.00 0.00 0.00 0.00 0.00 0.00
0.00 0.00 0.00 0.00 0.00 0.00 0.00 0.00 0.00 0.00 0.00 0.00 0.00 0.00 0.00 0.00 0.04 0.04 0.01 0.03 0.02 0.01 0.00 0.00 0.00 0.00 0.00 0.00 0.00 0.00 0.00 0.00 0.00 0.00 0.00 0.00 0.00 0.00 0.00 0.00 0.00 0.00 0.00
0.00 0.00 0.00 0.00 0.00 0.00 0.00 0.00 0.00 0.00 0.00 0.00 0.00 0.00 0.00 0.00 0.00 0.05 0.02 0.03 0.04 0.01 0.00 0.00 0.00 0.00 0.00 0.00 0.00 0.00 0.00 0.00 0.00 0.00 0.00 0.00 0.00 0.00 0.00 0.00 0.00 0.00 0.00
0.00 0.00 0.00 0.00 0.00 0.00 0.00 0.00 0.00 0.00 0.00 0.00 0.00 0.00 0.00 0.00 0.00 0.01 0.02 0.00 0.02 0.02 0.00 0.00 0.00 0.00 0.00 0.00 0.00 0.00 0.00 0.00 0.00 0.00 0.00 0.00 0.00 0.00 0.00 0.00 0.00 0.00 0.00
0.00 0.00 0.00 0.00 0.00 0.00 0.00 0.00 0.00 0.00 0.00 0.00 0.00 0.01 0.00 0.00 0.00 0.00 0.00 0.00 0.00 0.00 0.00 0.00 0.00 0.00 0.00 0.00 0.00 0.00 0.00 0.00 0.00 0.00 0.00 0.00 0.00 0.00 0.00 0.00 0.00 0.00 0.00
0.00 0.00 0.00 0.00 0.00 0.00 0.00 0.00 0.00 0.01 0.01 0.00 0.03 0.01 0.00 0.00 0.00 0.00 0.00 0.01 0.01 0.00 0.00 0.00 0.00 0.00 0.00 0.00 0.00 0.00 0.00 0.00 0.00 0.00 0.00 0.00 0.00 0.00 0.00 0.00 0.00 0.00 0.00
0.00 0.00 0.00 0.00 0.00 0.00 0.00 0.00 0.00 0.00 0.00 0.00 0.00 0.00 0.00 0.00 0.00 0.00 0.00 0.00 0.00 0.00 0.00 0.00 0.00 0.00 0.00 0.00 0.00 0.00 0.00 0.00 0.00 0.00 0.00 0.00 0.00 0.00 0.00 0.00 0.00 0.00 0.00
0.00 0.00 0.00 0.00 0.00 0.00 0.00 0.00 0.00 0.00 0.00 0.00 0.00 0.00 0.00 0.00 0.00 0.00 0.00 0.00 0.00 0.00 0.00 0.00 0.00 0.00 0.00 0.00 0.00 0.00 0.00 0.00 0.00 0.00 0.00 0.00 0.00 0.00 0.00 0.00 0.00 0.00 0.00
0.00 0.00 0.00 0.00 0.00 0.00 0.00 0.00 0.00 0.00 0.00 0.00 0.00 0.00 0.00 0.01 0.00 0.00 0.00 0.00 0.00 0.00 0.00 0.00 0.00 0.00 0.00 0.00 0.00 0.00 0.00 0.00 0.00 0.00 0.00 0.00 0.00 0.00 0.00 0.00 0.00 0.00 0.00
MSLP
1014.98 1015.00 1015.28 1015.50 1015.76 1015.95 1016.13 1016.33 1016.60 1016.82 1017.08 1017.31 1017.48 1017.64 1017.73 1017.82 1017.83 1017.93 1017.93 1017.97 1017.96 1017.99 1018.01 1017.99 1017.98 1018.08 1018.11 1018.12 1018.16 1018.24 1018.41 1018.59 1018.71 1018.72 1018.85 1019.04 1019.07 1019.05 1019.14 1019.31 1019.38 1019.57 1019.69
1014.43 1014.95 1015.27 1015.54 1015.87 1016.15 1016.31 1016.40 1016.71 1016.95 1017.20 1017.39 1017.48 1017.61 1017.78 1017.84 1017.95 1017.99 1018.07 1018.15 1018.14 1018.12 1018.13 1018.19 1018.25 1018.29 1018.36 1018.49 1018.53 1018.60 1018.76 1018.92 1018.97 1018.97 1019.11 1019.31 1019.42 1019.35 1019.44 1019.57 1019.74 1019.91 1020.12
1014.40 1014.86 1015.31 1015.74 1016.01 1016.30 1016.45 1016.55 1016.75 1016.96 1017.21 1017.44 1017.56 1017.73 1017.83 1017.87 1017.89 1017.95 1018.11 1018.22 1018.24 1018.25 1018.31 1018.36 1018.49 1018.65 1018.81 1018.90 1018.99 1019.12 1019.18 1019.14 1019.31 1019.32 1019.46 1019.56 1019.67 1019.74 1019.81 1019.91 1020.13 1020.31 1020.46
1014.30 1014.98 1015.43 1015.81 1016.13 1016.37 1016.51 1016.69 1016.83 1017.03 1017.27 1017.47 1017.67 1017.83 1017.90 1018.01 1018.09 1018.17 1018.29 1018.42 1018.37 1018.45 1018.59 1018.69 1018.81 1018.97 1019.07 1019.13 1019.25 1019.30 1019.34 1019.23 1019.23 1019.40 1019.52 1019.65 1019.83 1020.18 1020.21 1020.30 1020.53 1020.71 1020.90
1014.35 1015.07 1015.61 1015.85 1016.21 1016.49 1016.71 1016.83 1016.95 1017.15 1017.28 1017.49 1017.72 1017.87 1018.00 1018.13 1018.23 1018.33 1018.47 1018.57 1018.62 1018.77 1018.85 1018.89 1019.00 1019.15 1019.21 1019.27 1019.37 1019.41 1019.48 1019.49 1019.47 1019.69 1019.90 1020.19 1020.31 1020.48 1020.58 1020.69 1020.93 1021.06 1021.27
1014.59 1015.21 1015.67 1015.91 1016.20 1016.55 1016.78 1016.96 1017.12 1017.27 1017.42 1017.64 1017.84 1018.04 1018.12 1018.26 1018.46 1018.65 1018.66 1018.78 1018.86 1019.02 1019.02 1019.12 1019.14 1019.25 1019.37 1019.43 1019.64 1019.80 1019.67 1019.45 1019.71 1020.07 1020.33 1020.53 1020.73 1020.77 1020.91 1021.04 1021.25 1021.41 1021.51
1014.79 1015.43 1015.81 1016.03 1016.30 1016.65 1016.91 1017.07 1017.29 1017.46 1017.58 1017.83 1018.08 1018.14 1018.35 1018.47 1018.67 1018.74 1018.87 1019.06 1019.10 1019.18 1019.25 1019.29 1019.37 1019.49 1019.61 1019.73 1019.84 1019.93 1019.93 1019.92 1020.27 1020.53 1020.76 1020.93 1021.06 1021.13 1021.29 1021.46 1021.53 1021.64 1021.77
1014.78 1015.47 1015.87 1016.20 1016.51 1016.80 1017.02 1017.23 1017.38 1017.63 1017.72 1017.98 1018.15 1018.33 1018.51 1018.62 1018.77 1018.90 1019.00 1019.11 1019.23 1019.21 1019.25 1019.34 1019.48 1019.64 1019.81 1019.89 1019.85 1020.01 1020.09 1020.15 1020.50 1020.87 1021.12 1021.33 1021.42 1021.42 1021.56 1021.73 1021.82 1021.95 1022.02
1014.63 1015.46 1016.09 1016.41 1016.67 1016.93 1017.09 1017.33 1017.50 1017.75 1017.91 1018.14 1018.25 1018.57 1018.71 1018.83 1018.97 1019.03 1019.09 1019.21 1019.28 1019.26 1019.39 1019.49 1019.62 1019.85 1020.07 1019.89 1020.31 1020.51 1020.51 1020.50 1020.72 1021.04 1021.26 1021.61 1021.65 1021.71 1021.83 1021.97 1022.08 1022.14 1022.26
1014.93 1015.42 1016.14 1016.59 1016.86 1017.13 1017.24 1017.41 1017.63 1017.82 1018.08 1018.27 1018.49 1018.80 1018.93 1018.90 1019.10 1019.21 1019.36 1019.42 1019.47 1019.59 1019.67 1019.81 1020.11 1020.31 1020.38 1020.50 1020.74 1020.83 1020.73 1020.98 1021.07 1021.37 1021.65 1021.78 1021.85 1021.88 1021.99 1022.18 1022.31 1022.41 1022.50
1014.93 1015.33 1015.95 1016.49 1016.84 1017.18 1017.41 1017.53 1017.70 1017.97 1018.24 1018.37 1018.55 1018.97 1019.20 1019.23 1019.32 1019.41 1019.65 1019.73 1019.82 1019.90 1019.97 1019.98 1020.21 1020.34 1020.34 1020.50 1020.76 1021.01 1020.83 1021.13 1021.43 1021.77 1021.87 1021.89 1021.97 1022.05 1022.20 1022.36 1022.51 1022.65 1022.71
1014.69 1015.19 1015.64 1016.23 1016.66 1017.05 1017.28 1017.66 1017.92 1018.12 1018.41 1018.65 1018.82 1019.01 1019.24 1019.47 1019.47 1019.56 1019.82 1019.97 1020.08 1020.15 1020.16 1020.35 1020.60 1020.37 1020.27 1020.48 1020.94 1021.14 1020.93 1021.11 1021.58 1021.77 1021.91 1021.96 1022.06 1022.18 1022.39 1022.56 1022.61 1022.77 1022.84
1014.00 1014.72 1015.37 1015.85 1016.35 1016.72 1017.18 1017.64 1017.93 1018.23 1018.40 1018.77 1018.92 1019.01 1019.49 1019.57 1019.63 1019.95 1020.10 1020.20 1020.35 1020.47 1020.39 1020.65 1021.32 1021.13 1020.51 1020.58 1020.96 1021.23 1021.03 1021.39 1021.78 1021.89 1021.96 1021.97 1022.24 1022.37 1022.51 1022.59 1022.75 1022.89 1022.95
1013.75 1014.44 1014.96 1015.57 1016.05 1016.53 1016.90 1017.33 1017.69 1017.93 1018.30 1018.62 1018.90 1019.14 1019.51 1020.08 1020.01 1020.10 1020.22 1020.33 1020.39 1020.50 1020.94 1021.36 1021.19 1021.49 1021.25 1020.97 1020.99 1020.55 1021.01 1021.51 1021.93 1022.11 1022.13 1022.16 1022.36 1022.47 1022.60 1022.73 1022.86 1022.95 1022.92
1013.51 1014.28 1014.85 1015.48 1016.07 1016.34 1016.79 1017.16 1017.37 1017.81 1018.26 1018.55 1018.49 1019.01 1019.29 1020.13 1020.09 1020.03 1020.49 1020.80 1020.61 1020.59 1020.67 1021.58 1021.21 1021.19 1021.77 1021.25 1020.77 1020.55 1021.21 1021.58 1021.99 1022.18 1022.28 1022.23 1022.42 1022.57 1022.70 1022.81 1022.93 1022.90 1022.94
1013.32 1014.19 1014.87 1015.38 1015.92 1016.31 1016.95 1016.94 1017.52 1017.91 1018.05 1018.35 1018.36 1018.48 1019.14 1019.83 1020.18 1020.51 1020.27 1020.16 1020.71 1020.48 1020.06 1020.86 1021.16 1020.83 1020.96 1020.94 1020.55 1020.99 1021.40 1021.69 1021.83 1022.11 1022.24 1022.30 1022.43 1022.58 1022.75 1022.83 1022.91 1022.87 1022.97
1013.26 1014.01 1014.80 1015.22 1015.42 1016.39 1016.71 1016.76 1017.34 1017.25 1017.61 1018.49 1018.31 1018.49 1019.00 1019.63 1020.02 1020.09 1020.33 1020.55 1020.67 1020.32 1020.09 1020.57 1020.29 1020.78 1020.97 1020.82 1020.78 1020.95 1021.49 1021.56 1021.57 1021.94 1022.20 1022.40 1022.44 1022.53 1022.65 1022.79 1022.85 1022.84 1022.90
1013.30 1014.08 1014.65 1015.15 1015.78 1016.41 1016.49 1016.78 1017.31 1017.40 1017.70 1018.00 1018.35 1018.65 1019.17 1019.17 1019.74 1020.07 1020.04 1020.28 1020.09 1019.99 1020.11 1020.19 1020.35 1021.03 1021.22 1021.21 1021.17 1021.13 1021.37 1021.27 1021.40 1021.82 1022.10 1022.05 1022.24 1022.49 1022.54 1022.71 1022.77 1022.81 1022.87
1013.21 1014.03 1014.65 1015.15 1015.79 1016.37 1016.63 1016.87 1017.04 1016.97 1017.65 1018.09 1018.05 1018.53 1018.76 1018.99 1019.49 1019.76 1020.10 1020.03 1019.89 1020.25 1020.22 1020.23 1020.75 1020.87 1021.45 1021.43 1021.15 1021.11 1021.27 1021.22 1021.29 1021.49 1021.75 1022.09 1022.25 1022.21 1022.40 1022.52 1022.65 1022.75 1022.79
1013.07 1013.77 1014.47 1015.15 1015.70 1016.31 1016.65 1016.77 1017.10 1017.16 1017.63 1018.00 1018.00 1018.47 1018.61 1018.88 1019.28 1019.61 1019.93 1020.19 1020.37 1020.08 1020.25 1020.12 1020.77 1020.89 1021.12 1021.24 1021.30 1021.49 1021.50 1021.37 1021.31 1021.42 1021.56 1021.59 1021.71 1022.02 1022.15 1022.31 1022.45 1022.51 1022.63
1012.94 1013.76 1014.47 1015.20 1015.64 1016.19 1016.78 1017.08 1017.47 1017.87 1018.17 1018.18 1018.04 1018.22 1018.52 1018.82 1019.05 1019.45 1019.76 1019.88 1019.83 1020.32 1020.62 1020.57 1020.90 1021.09 1021.21 1021.19 1021.73 1021.97 1021.63 1021.50 1021.44 1021.54 1021.37 1021.39 1021.63 1021.76 1021.84 1022.10 1022.30 1022.35 1022.38
1012.81 1013.59 1014.39 1015.02 1015.57 1016.09 1016.67 1016.88 1017.27 1017.49 1017.78 1017.97 1018.14 1018.34 1018.45 1018.78 1019.03 1019.25 1019.51 1019.76 1019.91 1020.34 1020.49 1020.51 1020.88 1021.33 1021.48 1021.37 1021.75 1021.87 1022.10 1021.74 1021.26 1021.39 1021.07 1021.30 1021.38 1021.47 1021.63 1021.78 1021.97 1022.05 1022.06
1012.56 1013.35 1014.11 1014.72 1015.41 1015.91 1016.41 1016.89 1017.20 1017.39 1017.70 1018.25 1018.34 1018.47 1018.45 1018.63 1018.81 1019.01 1019.37 1019.69 1019.86 1020.05 1020.52 1020.59 1020.78 1021.13 1021.59 1021.39 1021.09 1021.39 1022.01 1022.21 1021.79 1021.53 1021.36 1021.29 1021.30 1021.46 1021.37 1021.34 1021.45 1021.57 1021.76
1012.09 1012.89 1013.70 1014.45 1015.22 1015.71 1016.09 1016.64 1017.03 1017.36 1017.65 1017.88 1017.97 1018.34 1018.36 1018.46 1018.67 1018.86 1019.13 1019.49 1019.93 1020.24 1020.48 1020.55 1020.45 1020.91 1021.49 1021.67 1021.45 1021.11 1021.17 1021.43 1021.78 1022.09 1021.49 1021.33 1021.15 1021.20 1021.16 1021.20 1021.15 1021.19 1021.39
1011.70 1012.59 1013.23 1014.09 1014.97 1015.45 1015.81 1016.16 1016.67 1017.02 1017.01 1017.20 1017.60 1017.94 1018.24 1018.37 1018.39 1018.66 1019.00 1019.23 1019.67 1020.11 1020.31 1020.59 1020.64 1020.85 1021.19 1021.53 1021.62 1021.59 1021.35 1021.27 1021.55 1021.79 1022.13 1021.80 1021.54 1021.11 1020.80 1020.78 1020.76 1020.94 1020.95
1011.45 1012.31 1013.01 1013.64 1014.43 1015.01 1015.45 1015.77 1016.20 1016.57 1016.75 1017.05 1017.38 1017.83 1017.97 1018.34 1018.42 1018.39 1018.71 1019.05 1019.38 1019.78 1020.17 1020.40 1020.47 1020.74 1020.97 1021.14 1021.41 1021.49 1021.49 1021.47 1021.61 1021.63 1021.83 1021.78 1021.64 1020.99 1020.55 1020.35 1020.53 1020.53 1020.51
Thickness
5766 5767 5763 5762 5760 5759 5758 5757 5755 5753 5751 5750 5749 5748 5747 5748 5748 5748 5748 5747 5748 5748 5749 5750 5750 5749 5749 5751 5751 5750 5749 5747 5746 5747 5747 5746 5746 5746 5746 5744 5744 5742 5740
5773 5769 5765 5762 5760 5759 5759 5759 5757 5756 5753 5752 5752 5752 5751 5751 5750 5749 5748 5747 5747 5749 5749 5749 5748 5748 5749 5748 5747 5747 5746 5745 5746 5748 5746 5745 5744 5746 5745 5744 5742 5740 5737
5776 5771 5767 5762 5761 5760 5759 5760 5759 5758 5756 5754 5754 5753 5753 5753 5752 5752 5750 5749 5748 5748 5748 5748 5748 5747 5745 5744 5744 5744 5743 5744 5744 5746 5746 5746 5745 5744 5744 5742 5739 5738 5736
5777 5771 5768 5764 5762 5761 5761 5760 5761 5760 5759 5758 5756 5755 5754 5753 5752 5750 5748 5747 5747 5748 5747 5747 5746 5745 5744 5744 5743 5743 5743 5745 5745 5746 5747 5747 5745 5742 5742 5740 5737 5736 5734
5778 5773 5768 5765 5763 5763 5761 5761 5762 5761 5761 5760 5758 5757 5756 5753 5750 5748 5746 5746 5746 5746 5745 5744 5744 5744 5744 5744 5744 5744 5744 5745 5747 5747 5747 5745 5743 5740 5739 5737 5735 5734 5732
5779 5774 5769 5767 5766 5764 5762 5762 5762 5763 5762 5761 5759 5757 5755 5752 5748 5745 5744 5744 5744 5744 5745 5743 5743 5745 5745 5745 5744 5744 5746 5749 5748 5747 5745 5743 5741 5739 5737 5735 5734 5732 5731
5779 5774 5770 5768 5767 5765 5764 5764 5763 5762 5763 5761 5758 5757 5755 5752 5748 5745 5744 5743 5744 5745 5745 5745 5745 5745 5746 5746 5745 5746 5746 5747 5746 5745 5743 5741 5739 5737 5735 5734 5733 5731 5729
5780 5775 5772 5769 5767 5766 5765 5765 5765 5763 5763 5762 5760 5758 5755 5752 5749 5748 5747 5747 5747 5747 5748 5748 5747 5747 5746 5747 5749 5748 5747 5746 5745 5744 5742 5740 5737 5736 5735 5733 5732 5730 5728
5782 5776 5771 5769 5767 5766 5766 5766 5766 5765 5764 5763 5761 5757 5755 5754 5751 5751 5751 5750 5750 5753 5752 5752 5752 5749 5746 5749 5748 5747 5747 5747 5746 5744 5741 5739 5737 5736 5735 5733 5731 5729 5727
5781 5777 5771 5769 5768 5767 5767 5767 5767 5767 5765 5764 5761 5758 5757 5757 5754 5753 5752 5752 5753 5753 5753 5753 5751 5750 5750 5749 5746 5745 5747 5745 5745 5743 5741 5739 5738 5737 5736 5734 5732 5730 5728
5781 5779 5774 5771 5770 5768 5768 5768 5768 5767 5766 5765 5764 5761 5759 5759 5758 5756 5753 5752 5753 5753 5755 5755 5752 5751 5751 5751 5749 5746 5747 5747 5745 5742 5741 5740 5739 5738 5736 5735 5732 5730 5729
5780 5779 5779 5774 5773 5770 5770 5769 5770 5769 5767 5766 5765 5765 5762 5761 5760 5759 5757 5755 5754 5754 5755 5754 5748 5754 5756 5754 5751 5748 5751 5749 5745 5744 5743 5742 5741 5739 5737 5735 5734 5732 5731
5788 5785 5783 5779 5776 5776 5774 5772 5772 5770 5769 5767 5768 5767 5764 5764 5763 5759 5757 5757 5756 5755 5756 5753 5746 5752 5756 5757 5753 5750 5752 5750 5746 5745 5745 5745 5742 5741 5739 5738 5736 5734 5734
5791 5788 5787 5782 5780 5780 5778 5777 5776 5774 5771 5771 5770 5767 5766 5762 5763 5764 5760 5758 5758 5757 5756 5753 5747 5749 5751 5754 5755 5757 5755 5750 5747 5746 5746 5746 5744 5743 5742 5740 5738 5737 5737
5794 5791 5790 5786 5784 5783 5783 5781 5781 5778 5774 5772 5775 5772 5770 5764 5767 5768 5764 5758 5759 5761 5761 5754 5756 5756 5752 5756 5760 5759 5755 5753 5750 5749 5749 5748 5746 5745 5743 5742 5741 5741 5741
5797 5793 5791 5789 5787 5786 5785 5785 5781 5780 5778 5775 5779 5777 5774 5769 5769 5765 5767 5765 5763 5764 5767 5763 5761 5763 5761 5761 5764 5759 5756 5755 5754 5753 5751 5750 5749 5748 5746 5745 5744 5745 5744
5797 5796 5792 5792 5792 5788 5788 5788 5785 5786 5783 5777 5778 5780 5776 5771 5769 5770 5768 5768 5766 5768 5770 5765 5768 5765 5764 5764 5765 5764 5759 5759 5760 5756 5754 5752 5751 5751 5750 5748 5748 5749 5749
5798 5795 5796 5797 5793 5790 5791 5790 5786 5786 5785 5782 5781 5778 5776 5776 5772 5771 5771 5770 5772 5773 5773 5773 5771 5767 5765 5766 5765 5766 5764 5765 5764 5760 5759 5758 5756 5753 5752 5751 5751 5751 5752
5799 5796 5796 5796 5793 5791 5790 5790 5790 5791 5786 5783 5786 5781 5780 5778 5775 5774 5773 5774 5774 5773 5773 5772 5769 5769 5764 5765 5768 5770 5768 5768 5767 5765 5764 5760 5759 5759 5758 5757 5756 5756 5756
5802 5800 5798 5797 5795 5793 5792 5792 5790 5790 5787 5785 5788 5784 5783 5779 5777 5777 5775 5774 5773 5775 5776 5776 5772 5773 5770 5770 5771 5769 5769 5771 5771 5770 5769 5767 5767 5765 5764 5762 5761 5761 5760
5803 5800 5797 5796 5796 5793 5790 5788 5787 5785 5784 5785 5787 5787 5785 5783 5780 5779 5778 5777 5780 5778 5775 5777 5774 5772 5772 5775 5767 5767 5770 5773 5774 5773 5773 5773 5771 5769 5769 5768 5766 5766 5765
5801 5800 5798 5798 5798 5796 5793 5794 5792 5792 5791 5789 5787 5786 5786 5783 5783 5783 5783 5782 5781 5780 5779 5780 5776 5772 5772 5775 5767 5765 5757 5764 5776 5777 5779 5778 5776 5775 5774 5774 5772 5770 5771
5802 5800 5799 5800 5799 5799 5798 5796 5794 5795 5793 5788 5787 5787 5788 5787 5786 5786 5785 5785 5785 5783 5780 5781 5780 5776 5769 5775 5779 5771 5757 5752 5763 5776 5779 5779 5780 5778 5780 5779 5778 5777 5776
5805 5805 5803 5802 5800 5800 5801 5797 5794 5792 5788 5792 5793 5791 5792 5790 5789 5789 5788 5787 5785 5784 5783 5782 5783 5780 5774 5770 5776 5781 5780 5776 5764 5759 5776 5780 5782 5781 5785 5783 5783 5783 5780
5809 5806 5806 5803 5801 5802 5802 5801 5798 5796 5799 5799 5799 5797 5796 5793 5793 5792 5791 5791 5789 5787 5785 5784 5783 5782 5779 5776 5774 5776 5779 5780 5779 5769 5761 5770 5779 5783 5787 5786 5789 5789 5787
5808 5807 5806 5806 5804 5805 5804 5804 5801 5800 5801 5801 5801 5798 5798 5797 5797 5797 5795 5794 5792 5789 5788 5787 5785 5785 5783 5781 5779 5780 5778 5776 5775 5775 5771 5772 5773 5784 5790 5791 5792 5794 5793